• Processing (Info)

  • MPEC 2019-T36 : 2019 TE

    The following Minor Planet Electronic Circular may be linked-to from your own Web pages, but must not otherwise be redistributed electronically.

    A form allowing access to any MPEC is at the bottom of this page.


    Read MPEC 2019-T35 Read MPEC 2019-T37


    M.P.E.C. 2019-T36                               Issued 2019 October 2, 06:12 UT
    
         The Minor Planet Electronic Circulars contain information on unusual
             minor planets and routine data on comets.  They are published
        on behalf of Division F of the International Astronomical Union by the
              Minor Planet Center, Smithsonian Astrophysical Observatory,
                              Cambridge, MA 02138, U.S.A.
    
                 Prepared using the Tamkin Foundation Computer Network
    
                                  MPC@CFA.HARVARD.EDU
                URL https://www.minorplanetcenter.net/    ISSN 1523-6714
    
                                     2019 TE                                 
    
    
    Observations:
         K19T00E* C2019 10 01.24388 23 25 24.42 +06 52 12.0          20.8 GVET036G96
         K19T00E  C2019 10 01.24910 23 25 26.41 +06 52 05.1          20.6 GVET036G96
         K19T00E  C2019 10 01.25433 23 25 28.44 +06 51 58.3          20.9 GVET036G96
         K19T00E  C2019 10 01.25956 23 25 30.42 +06 51 50.6          20.2 GVET036G96
         K19T00E  C2019 10 01.36368 23 26 09.32 +06 49 25.9          21.2 GVET036I52
         K19T00E  C2019 10 01.36494 23 26 09.79 +06 49 24.0          21.1 GVET036I52
         K19T00E  C2019 10 01.36619 23 26 10.29 +06 49 22.5          20.7 GVET036I52
         K19T00E  C2019 10 01.36744 23 26 10.75 +06 49 20.2          20.8 GVET036I52
         K19T00E KC2019 10 02.17502923 31 02.44 +06 35 59.3          21.8 VuET036H21
         K19T00E  C2019 10 02.18668 23 31 09.70 +06 36 12.8          22.2 GVET036I52
         K19T00E  C2019 10 02.19168 23 31 10.63 +06 36 09.6          20.9 GVET036I52
         K19T00E KC2019 10 02.19369323 31 05.87 +06 35 45.4          21.9 VuET036H21
         K19T00E  C2019 10 02.19668 23 31 11.53 +06 36 06.7          21.4 GVET036I52
         K19T00E KC2019 10 02.19977623 31 07.01 +06 35 40.8          21.6 VuET036H21
         K19T00E  C2019 10 02.20167 23 31 12.40 +06 36 02.7          21.9 GVET036I52
    
    Observer details:
    G96 Mt. Lemmon Survey.  Observer R. A. Kowalski.  Measurers B. M. Africano, E. 
       J. Christensen, G. A. Farneth, D. C. Fuls, A. R. Gibbs, A. D. Grauer, H. 
       Groeller, R. A. Kowalski, S. M. Larson, G. J. Leonard, T. A. Pruyne, D. 
       Rankin, R. L. Seaman, F. C. Shelly.  1.5-m reflector + 10K CCD.
    H21 Astronomical Research Observatory, Westfield.  Observer R. Holmes.  
        Measurers S. Foglia, L. Buzzi, T. Linder, R. Holmes.  1.3-m f/4.0 
       astrograph + CCD.
    I52 Steward Observatory, Mt. Lemmon Station.  Observers D. Rankin, T. A. 
       Pruyne.  Measurers B. M. Africano, E. J. Christensen, G. A. Farneth, D. C. 
       Fuls, A. R. Gibbs, A. D. Grauer, H. Groeller, R. A. Kowalski, S. M. Larson, 
       G. J. Leonard, T. A. Pruyne, D. Rankin, R. L. Seaman, F. C. Shelly.  1.0-m 
       reflector + CCD.
    
    Orbital elements:
    2019 TE                                                  Earth MOID = 0.0014 AU
    Epoch 2019 Apr. 27.0 TT = JDT 2458600.5                 Bell
    M 296.76924              (2000.0)            P               Q
    n   0.62179362     Peri.  258.01475     -0.13655301     +0.99061305
    a   1.3594770      Node     4.15211     -0.87198965     -0.11720226
    e   0.6016829      Incl.    4.95228     -0.47009289     -0.07035214
    P   1.59           H   28.0           G   0.15           U   8
    Residuals in seconds of arc
    191001 G96  0.2+  0.3-    191001 I52  0.2-  0.1-    191002 I52  0.1+  0.1-
    191001 G96  0.2-  0.0     191001 I52  0.2+  0.1+    191002 H21  0.1-  0.0
    191001 G96  0.2+  0.5+    191001 I52  0.1+  0.4-    191002 I52  0.0   0.4+
    191001 G96  0.1-  0.0     191002 H21  0.4+  0.4+    191002 H21  0.2+  0.2-
    191001 I52  0.2-  0.1+    191002 I52  0.0   0.2-    191002 I52  0.5-  0.2-
    
    Ephemeris:
    2019 TE                  a,e,i = 1.36, 0.60, 5                   q = 0.5415
    Date    TT    R. A. (2000) Decl.     Delta      r    Elong.  Phase     V
    2019 09 02    11 43 11.0 -04 39 15   0.3299  0.7079    19.9   151.0    33.5
    ...
    2019 09 17    11 48 14.9 -05 40 03   0.1360  0.8711     8.7   169.9
    ...
    2019 09 25    11 56 20.9 -05 21 21   0.04373 0.9596     5.3   174.5
    ...
    2019 10 01    23 23 06.2 +07 01 05   0.02439 1.0249   163.6    16.0    20.9
    2019 10 02    23 30 12.1 +06 40 28   0.03568 1.0356   164.7    14.8    21.7
    2019 10 03    23 33 55.4 +06 29 31   0.04702 1.0463   164.8    14.5    22.3
    ...
    2019 10 09    23 41 27.0 +06 08 25   0.1158  1.1095   161.5    16.6    24.4
    ...
    2019 10 17    23 45 25.6 +06 03 19   0.2103  1.1908   155.1    20.7    26.0
    ...
    2019 11 01    23 53 27.5 +06 15 42   0.4012  1.3337   142.5    26.9    27.9
    
    A. U. Tomatic                (C) Copyright 2019 MPC           M.P.E.C. 2019-T36
    


    Read MPEC 2019-T35 Read MPEC 2019-T37


    MPEC number:

    Enter an MPEC number in one of the following forms:

    • 1997-B01 (the full form)
    • J97B01 (the packed version of the full form)
    • B01 (the abbreviated form)